Location: Monroe
(41.9160°N, 83.3980°W)
Time: 00:22:54
(UTC-04:00)

ISS - Visible Passes

Search period start: 24 July 2014 00:00
Search period end: 03 August 2014 00:00
Orbit: 411 x 419 km, 51.6° (Epoch: 24 July)

Date Brightness Start Highest point End Pass type
(mag) Time Alt. Az. Time Alt. Az. Time Alt. Az.
24 Jul -1.3 03:01:31 28° NE 03:01:31 28° NE 03:03:17 10° NE visible
24 Jul -0.9 04:34:32 10° WNW 04:37:05 20° NNW 04:39:39 10° NE visible
25 Jul -0.1 02:14:21 11° ENE 02:14:21 11° ENE 02:14:28 10° ENE visible
25 Jul -1.3 03:47:13 22° NW 03:48:05 24° NNW 03:50:56 10° NE visible
25 Jul -0.4 05:23:33 10° NW 05:25:41 16° N 05:27:48 10° NE visible
26 Jul -1.2 03:00:02 28° N 03:00:02 28° N 03:02:13 10° NE visible
26 Jul -0.4 04:34:26 10° NW 04:36:37 16° N 04:38:47 10° NE visible
27 Jul -0.3 02:12:51 15° NE 02:12:51 15° NE 02:13:31 10° NE visible
27 Jul -0.6 03:45:42 12° NW 03:47:33 17° N 03:49:55 10° NE visible
27 Jul -0.4 05:22:51 10° NW 05:25:13 18° N 05:27:36 10° NE visible
28 Jul -0.8 02:58:30 20° NNW 02:58:31 20° NNW 03:01:08 10° NE visible
28 Jul -0.3 04:33:59 10° NW 04:36:10 16° N 04:38:21 10° NE visible
29 Jul -0.3 02:11:19 17° NNE 02:11:19 17° NNE 02:12:24 10° NE visible
29 Jul -0.3 03:44:58 10° NW 03:47:05 16° N 03:49:12 10° NE visible
29 Jul -0.9 05:21:49 10° NW 05:24:40 25° NNE 05:27:31 10° ENE visible
30 Jul -0.4 02:57:00 14° NNW 02:58:01 16° N 03:00:13 10° NE visible
30 Jul -0.5 04:33:05 10° NW 04:35:40 20° NNE 04:38:14 10° ENE visible
31 Jul -0.2 02:09:52 16° N 02:09:52 16° N 02:11:21 10° NE visible
31 Jul -0.3 03:44:18 10° NW 03:46:37 17° N 03:48:56 10° NE visible
31 Jul -2.1 05:20:42 10° NW 05:23:57 45° NNE 05:27:12 10° ESE visible
01 Aug -0.2 02:55:43 11° NNW 02:57:33 16° N 02:59:42 10° NE visible
01 Aug -1.3 04:31:59 10° NW 04:35:02 31° NNE 04:38:05 10° E visible
02 Aug -0.1 02:09:02 15° N 02:09:02 15° N 02:10:34 10° NE visible
02 Aug -0.8 03:43:16 10° NW 03:46:03 24° NNE 03:48:51 10° ENE visible
02 Aug -3.4 05:19:42 10° WNW 05:23:03 72° SW 05:26:23 10° SE visible
02 Aug -2.5 22:02:22 10° SSW 22:05:18 30° SE 22:07:59 12° ENE visible
02 Aug -1.6 23:38:49 10° W 23:41:08 32° WNW 23:41:08 32° WNW visible
